Regional Weather Roundup
Issued by NWS

Home | Current Version | Previous Version | Text Only | Print | Product List | Glossary Off
Versions: 1 2 3 4 5 6 7 8 9 10 11 12 13 14 15 16 17 18 19 20 21 22 23 24 25 26 27 28 29 30 31 32 33 34 35 36 37 38 39 40 41 42 43 44 45 46 47 48 49 50

000
ASUS43 KLOT 281713
RWRIL

ILLINOIS REGIONAL WEATHER ROUNDUP
NATIONAL WEATHER SERVICE CHICAGO/ROMEOVILLE IL
1200 PM CDT THU MAY 28 2015

NOTE: "FAIR" INDICATES FEW OR NO CLOUDS BELOW 12,000 FEET WITH NO
SIGNIFICANT WEATHER AND/OR OBSTRUCTIONS TO VISIBILITY.

* THESE STATIONS ARE NOT UNDER NWS QUALITY CONTROL. THEY ALSO MAY NOT
  REPORT WEATHER SUCH AS PRECIPITATION OR FOG.

ILZ001-002-007-009-015-016-024-281800-
NORTHWEST ILLINOIS

CITY           SKY/WX    TMP DP  RH WIND       PRES   REMARKS
MOLINE         SUNNY     80  55  42 SE15G22   30.14F HX  80
STERLING*      SUNNY     81  55  41 SE10G16   30.16F HX  80
SAVANNA*       SUNNY     81  55  40 SE10      30.16S HX  80
$$

ILZ003-004-008-010-011-017-018-281800-
NORTH CENTRAL ILLINOIS

CITY           SKY/WX    TMP DP  RH WIND       PRES   REMARKS
ROCKFORD       PTSUNNY   79  59  50 S10       30.19F HX  80
FREEPORT*      MOSUNNY   77  57  50 SE13G18   30.19S
ROCHELLE*      MOSUNNY   78  55  46 SE13      30.18F
DE KALB*       MOSUNNY   75  57  53 SE8       30.20F
$$

ILZ005-006-012>014-019>023-281800-
NORTHEAST ILLINOIS

CITY           SKY/WX    TMP DP  RH WIND       PRES   REMARKS
CHICAGO-OHARE  PTSUNNY   79  54  41 SE9       30.19F
CHICAGO-MIDWAY PTSUNNY   81  56  42 SE12      30.19F HX  81
AURORA         SUNNY     79  57  46 SE12      30.20F HX  80
LANSING*       SUNNY     78  55  45 SE10      30.21S
JOLIET*        SUNNY     80  59  49 S8        30.19F HX  80
WAUKEGAN       SUNNY     73  59  61 E8        30.19F
DUPAGE AIRPORT SUNNY     78  56  46 S10       30.19F
KANKAKEE*      SUNNY     78  58  49 SE9G16    30.20F
WHEELING       SUNNY     80  53  39 SE8       30.20F HX  80
MORRIS*        SUNNY     80  57  45 E12       30.18F HX  80
ROMEOVILLE*    SUNNY     79  57  46 SE8       30.19F HX  80
NORTHERLY ISL    N/A     64  54  69 E3          N/A
$$

LMZ740>746-281800-
SOUTHERN LAKE MICHIGAN

STATION/POSITION SKY/WX   TEMP    WIND        PRES    VSBY  WAVE
                          AIR SEA DIR/SP/G                  HT/PER
                          (F)     (DEG/KT/KT) (MB)    (MI)  (FT/S)
SOUTHERN BUOY              46 38  160/  8/  8 1024.0F         0
HARRISON CRIB              66     130/ 11/ 12   N/A
BURNHAM HARBOR             65      CALM  /  6   N/A
CALUMET HARBOR             66      50/  7/  8   N/A
BURNS HARBOR               65      20/  3/  5 1023.7F
MICHIGAN CITY              68      10/  6/  8   N/A
MICHIGAN CITY 6N           60 55   50/  6/  8   N/A           0
ST. JOSEPH                 63 59   30/  4/  8   N/A           0
$$

ILZ025>027-034>036-040-047-049-050-058-095>099-281800-
WEST-CENTRAL ILLINOIS

CITY           SKY/WX    TMP DP  RH WIND       PRES   REMARKS
QUINCY         CLOUDY    77  57  50 SE13      30.14R
GALESBURG*     MOSUNNY   77  55  45 E10G16    30.16F
MACOMB*        PTSUNNY   77  54  44 SE13      30.18S
JACKSONVILLE*  PTSUNNY   81  58  45 E10       30.15S HX  81
PITTSFIELD*    CLOUDY    78  62  57 SE10      30.16S
$$

ILZ028>032-037-038-041>044-048-051>054-059>061-281800-
CENTRAL ILLINOIS

CITY           SKY/WX    TMP DP  RH WIND       PRES   REMARKS
PONTIAC        SUNNY     82  55  40 E13G20    30.19F HX  81
BLOOMINGTON    SUNNY     80  57  45 SE14      30.19F HX  80
DECATUR        SUNNY     80  55  42 SE10G17   30.16F HX  80
PEORIA         SUNNY     80  53  39 SE13G20   30.16F HX  80
LACON*         SUNNY     79  52  38 SE8       30.16F
LINCOLN*       SUNNY     80  54  39 SE7G16    30.14F HX  80
SPRINGFIELD    MOSUNNY   81  58  45 SE9       30.16S HX  81
TAYLORVILLE    MOSUNNY   79  57  47 SE5       30.16S HX  80
$$

ILZ033-039-045-046-055>057-062-063-281800-
EAST-CENTRAL ILLINOIS

CITY           SKY/WX    TMP DP  RH WIND       PRES   REMARKS
CHAMPAIGN      SUNNY     82  49  31 E15G21    30.18F HX  81
DANVILLE*      SUNNY     79  51  38 E9        30.17F
RANTOUL*       SUNNY     82  48  29 E13       30.18F HX  81
PARIS*         SUNNY     82  52  35 NE8       30.18F HX  81
$$

ILZ079-100>102-281800-
SOUTHWEST ILLINOIS

CITY           SKY/WX    TMP DP  RH WIND       PRES   REMARKS
ALTON          MOSUNNY   81  72  74 SE9       30.15S HX  84
BELLEVILLE     MOSUNNY   80  71  74 S9        30.14R HX  84
CAHOKIA*       MOSUNNY   81  68  64 SE10      30.14S HX  84
SPARTA*        MOSUNNY   78  69  73 SE10      30.16R
$$

ILZ064>066-069>071-074>076-080>082-084>086-088>090-092>094-281800-
SOUTH-CENTRAL ILLINOIS

CITY           SKY/WX    TMP DP  RH WIND       PRES   REMARKS
CARBONDALE     PTSUNNY   78  68  71 VRB6      30.15F HX  80
CAIRO*         MOSUNNY   78  67  67 S7        30.16R HX  80
EFFINGHAM*     MOSUNNY   82  58  42 E10       30.17F HX  82
MARION         PTSUNNY   81  68  65 MISG      30.16F HX  83
MT. VERNON     PTSUNNY   82  68  61 SE6       30.16S HX  85
CENTRALIA*     MOSUNNY   85  65  50 S3        30.15S HX  87
SALEM*         MOSUNNY   82  67  58 SE6       30.15S HX  85
METROPOLIS*    SUNNY     80  65  61 SE6       30.15S HX  82
$$

ILZ067-068-072-073-078-083-087-091-281800-
SOUTHEAST ILLINOIS

CITY           SKY/WX    TMP DP  RH WIND       PRES   REMARKS
LAWRENCEVILLE  PTSUNNY   82  66  58 VRB7      30.16F HX  84
FLORA*         SUNNY     80  66  62 SE3       30.15F HX  82
FAIRFIELD*     MOSUNNY   81  67  63 SE9       30.13F HX  83
HARRISBURG*    MOSUNNY   79  69  72 SE5       30.16F HX  82
ROBINSON*      MOSUNNY   82  62  50 E7        30.18F HX  83
CARMI*         MOSUNNY   82  61  47 S9        30.15S HX  83
$$

ABBREVIATIONS USED IN REMARKS
   TC - TEMPERATURE IN CELSIUS
  WCI - WIND CHILL INDEX
   HX - HEAT INDEX
  VSB - VISIBILITY
$$




USA.gov is the U.S. government's official web portal to all federal, state and local government web resources and services.